Regional Weather Roundup
Issued by NWS

Home | Current Version | Previous Version | Text Only | Print | Product List | Glossary Off
Versions: 1 2 3 4 5 6 7 8 9 10 11 12 13 14 15 16 17 18 19 20 21 22 23 24 25 26 27 28 29 30 31 32 33 34 35 36 37 38 39 40 41 42 43 44 45 46 47 48 49 50

839
ASUS43 KLSX 170607
RWRMO

WEATHER SUMMARY FOR MISSOURI
NATIONAL WEATHER SERVICE SPRINGFIELD MO
1200 AM CST WED JAN 17 2018

NOTE: "FAIR" INDICATES FEW OR NO CLOUDS BELOW 12,000 FEET WITH NO
       SIGNIFICANT WEATHER AND/OR OBSTRUCTIONS TO VISIBILITY.
       CURRENT SKY AND/OR WEATHER CONDITIONS ARE NOT AVAILABLE FOR
       CHILLICOTHE AND FARMINGTON.

MOZ001>031-035>038-043-044-053-054-170700-
...NORTHERN AND WESTERN MISSOURI...

CITY           SKY/WX    TMP DP  RH WIND       PRES   REMARKS
KANSAS CTY INT CLOUDY    -1  -5  82 S6        30.68S WCI -13
6HR MIN TEMP:  -1; 6HR MAX TEMP:   5;

KANSAS C DTWN  CLOUDY     6  -1  73 SW3       30.72S
6HR MIN TEMP:   5; 6HR MAX TEMP:   9;

LEE`S SUMMIT   CLOUDY     2  -2  83 SW3       30.69F
6HR MIN TEMP:   2; 6HR MAX TEMP:   7;

ST JOSEPH      CLOUDY    -2  -4  91 CALM      30.71F
6HR MIN TEMP:  -3; 6HR MAX TEMP:   4;

CHILLICOTHE      N/A     -1  -6  79 CALM      30.71F
6HR MIN TEMP:  -1; 6HR MAX TEMP:   9;

KIRKSVILLE     CLOUDY    -2  -4  91 W6        30.65F WCI -14
6HR MIN TEMP:  -3; 6HR MAX TEMP:   8;


$$
MOZ066>068-077>081-088>096-101>105-170700-
...SOUTHWEST MISSOURI...

CITY           SKY/WX    TMP DP  RH WIND       PRES   REMARKS
SPRINGFIELD    CLOUDY    -4  -7  87 CALM      30.66F
6HR MIN TEMP:  -5; 6HR MAX TEMP:   5;

JOPLIN         CLOUDY    -3  -5  90 S3        30.73S
6HR MIN TEMP:  -4; 6HR MAX TEMP:   6;

BRANSON        CLOUDY     1  -2  85 W3        30.68F

$$
MOZ032>034-039>042-045>050-055>058-069>072-170700-
...CENTRAL MISSOURI...

CITY           SKY/WX    TMP DP  RH WIND       PRES   REMARKS
COLUMBIA       CLOUDY     2  -2  83 W7        30.68F WCI -11
6HR MIN TEMP:   1; 6HR MAX TEMP:   6;

JEFFERSON CITY CLOUDY     3  -2  79 CALM      30.74S
6HR MIN TEMP:   2; 6HR MAX TEMP:   9;

ROLLA          PTCLDY     3  -1  83 W7        30.67S WCI  -9
6HR MIN TEMP:   2; 6HR MAX TEMP:   6;

SEDALIA        CLOUDY     3   0  87 W6        30.70F WCI  -8
6HR MIN TEMP:   3; 6HR MAX TEMP:   7;

WHITEMAN AFB   CLEAR     -2  -7  80 S3        30.66F
WARRENSBURG    CLOUDY    -2  -6  84 CALM      30.72F
OSAGE BEACH    CLOUDY    -4 -11  72 SW3       30.71F

$$
MOZ051-052-059>065-170700-
...EAST CENTRAL MISSOURI...

CITY           SKY/WX    TMP DP  RH WIND       PRES   REMARKS
ST LOUIS INTL  FLURRIES  10   3  73 W12       30.68F WCI  -5
6HR MIN TEMP:   7; 6HR MAX TEMP:  11; 6HR PCP: TRACE;

SPIRIT OF STL  CLOUDY     9   1  70 W7        30.70F WCI  -2
6HR MIN TEMP:   8; 6HR MAX TEMP:  11;

ST CHARLES     CLEAR      8   1  73 W12       30.70S WCI  -7
6HR MIN TEMP:   7; 6HR MAX TEMP:  10;


$$
MOZ072>076-082>087-097>100-106>115-170700-
...SOUTH CENTRAL AND SOUTHEAST MISSOURI...

CITY           SKY/WX    TMP DP  RH WIND       PRES   REMARKS
CAPE GIRARDEAU CLOUDY    12   3  67 N9        30.69F WCI   0
6HR MIN TEMP:  12; 6HR MAX TEMP:  13;

FARMINGTON     CLOUDY     8   2  76 NW10      30.66S WCI  -6
6HR MIN TEMP:   7; 6HR MAX TEMP:   9; 6HR PCP: TRACE;

POPLAR BLUFF   MOCLDY   N/A N/A N/A NW8       30.70F
WEST PLAINS    CLEAR      2  -3  80 NW3       30.65F
6HR MIN TEMP:   2; 6HR MAX TEMP:   7;


$$



USA.gov is the U.S. government's official web portal to all federal, state and local government web resources and services.